Find Starlink 2033

NORAD ID: 47650 Int'l Des: 2021-012 Owner: SPXS Country: US Constellation: starlink operational
LEOCIRCULAR

現在のビュー

3D地球を読み込み中...

About Starlink 2033

Starlink 2033 (NORAD 47650) is a starlink constellation satellite (v1.0) launched Feb 16, 2021 by SPXS of US. It operates in LEO, CIRCULAR orbit with a mass of 260.00 kg.

Starlink 2033について

説明を読み込み中...

次回通過

Passes for default location (London). Set your location on the main map for personalized predictions.

高度履歴

Loading altitude history...

軌道要素

1 47650U 21012AG 26168.65961802 .00055861 00000-0 13005-2 0 9994
2 47650 53.1510 300.6983 0001638 220.6545 139.4339 15.41772218295657
Epoch: Jun 17, 2026 • Age: 21 hours

現在のステータス

高度 445.4 km
速度 7.65 km/s
衛星直下点 44.36°N, 25.51°W
打ち上げ日 Feb 16, 2021
運用期間 5.3 years
タイプ internet

技術仕様

分類 Payload
質量 260.00 kg
乾燥質量 248.00 kg
総質量 260.00 kg
長さ 0.20 m
直径 2.80 m
スパン 9.00 m
形状 Box + pan
製造者 SPXS
バスタイプ Starlink
フェーズステータス In Orbit
所有者/国 SPXS/US

Most Searched